| time (UTC) | temp F | wind direction | speed knots | gust knots | rain 1hr in | rain 24hr in | rain mn in | humidity % | barometer mb |
| 20260510180350 | 57 | 276 | 3.5 | 7.8 | 0.00 | 0.00 | 0.00 | 35 | 1017.1 |
| 20260510175847 | 57 | 329 | 1.7 | 3.5 | 0.00 | 0.00 | 0.00 | 33 | 1017.1 |
| 20260510175342 | 59 | 62 | 1.7 | 5.2 | 0.00 | 0.00 | 0.00 | 35 | 1017.0 |
| 20260510174839 | 58 | 156 | 2.6 | 5.2 | 0.00 | 0.00 | 0.00 | 35 | 1017.1 |
| 20260510174337 | 57 | 324 | 2.6 | 18.2 | 0.00 | 0.00 | 0.00 | 36 | 1017.2 |
| 20260510173833 | 56 | 347 | 3.5 | 7.0 | 0.00 | 0.00 | 0.00 | 39 | 1017.1 |
| 20260510173329 | 57 | 324 | 2.6 | 9.6 | 0.00 | 0.00 | 0.00 | 36 | 1017.1 |
| 20260510172825 | 57 | 8 | 3.5 | 7.0 | 0.00 | 0.00 | 0.00 | 34 | 1017.1 |
| 20260510172321 | 57 | 312 | 2.6 | 6.1 | 0.00 | 0.00 | 0.00 | 35 | 1017.3 |
| 20260510171818 | 58 | 347 | 3.5 | 6.1 | 0.00 | 0.00 | 0.00 | 33 | 1017.5 |
| 20260510171315 | 57 | 74 | 2.6 | 5.2 | 0.00 | 0.00 | 0.00 | 33 | 1017.5 |
| 20260510170812 | 57 | 277 | 2.6 | 11.3 | 0.00 | 0.00 | 0.00 | 37 | 1017.3 |
| 20260510170308 | 58 | 333 | 2.6 | 6.1 | 0.00 | 0.00 | 0.00 | 33 | 1017.3 |
| 20260510165803 | 57 | 71 | 1.7 | 3.5 | 0.00 | 0.00 | 0.00 | 35 | 1017.4 |
| 20260510165300 | 57 | 323 | 3.5 | 5.2 | 0.00 | 0.00 | 0.00 | 35 | 1017.4 |
| 20260510164757 | 57 | 355 | 1.7 | 6.1 | 0.00 | 0.00 | 0.00 | 35 | 1017.5 |
| 20260510164255 | 56 | 268 | 0.9 | 9.6 | 0.00 | 0.00 | 0.00 | 39 | 1017.5 |
| 20260510163754 | 56 | 75 | 1.7 | 5.2 | 0.00 | 0.00 | 0.00 | 37 | 1017.4 |
| 20260510163251 | 56 | 27 | 4.3 | 13.0 | 0.00 | 0.00 | 0.00 | 38 | 1017.4 |
| 20260510162750 | 56 | 286 | 4.3 | 11.3 | 0.00 | 0.00 | 0.00 | 32 | 1017.3 |
| 20260510162248 | 56 | 271 | 0.9 | 5.2 | 0.00 | 0.00 | 0.00 | 39 | 1017.4 |
| 20260510161743 | 55 | 73 | 1.7 | 6.1 | 0.00 | 0.00 | 0.00 | 36 | 1017.4 |
| 20260510161239 | 55 | 246 | 4.3 | 7.8 | 0.00 | 0.00 | 0.00 | 38 | 1017.4 |
| 20260510160737 | 55 | 275 | 6.1 | 9.6 | 0.00 | 0.00 | 0.00 | 40 | 1017.4 |
| 20260510160232 | 55 | 8 | 1.7 | 6.1 | 0.00 | 0.00 | 0.00 | 40 | 1017.3 |
| 20260510155728 | 55 | 302 | 2.6 | 8.7 | 0.00 | 0.00 | 0.00 | 41 | 1017.2 |
| 20260510155224 | 55 | 311 | 1.7 | 2.6 | 0.00 | 0.00 | 0.00 | 42 | 1017.1 |
| 20260510154720 | 55 | 230 | 2.6 | 3.5 | 0.00 | 0.00 | 0.00 | 40 | 1017.1 |
| 20260510154216 | 55 | 96 | 1.7 | 6.1 | 0.00 | 0.00 | 0.00 | 39 | 1017.1 |
| 20260510153711 | 55 | 9 | 7.0 | 8.7 | 0.00 | 0.00 | 0.00 | 38 | 1017.1 |
| 20260510153208 | 54 | 307 | 4.3 | 7.0 | 0.00 | 0.00 | 0.00 | 41 | 1017.2 |
| 20260510152705 | 55 | 355 | 2.6 | 5.2 | 0.00 | 0.00 | 0.00 | 39 | 1017.1 |
| 20260510152200 | 55 | 25 | 1.7 | 2.6 | 0.00 | 0.00 | 0.00 | 40 | 1016.9 |
| 20260510151657 | 53 | 354 | 2.6 | 8.7 | 0.00 | 0.00 | 0.00 | 44 | 1016.9 |
| 20260510151156 | 52 | 308 | 1.7 | 11.3 | 0.00 | 0.00 | 0.00 | 45 | 1016.8 |
| 20260510150651 | 53 | 272 | 5.2 | 7.8 | 0.00 | 0.00 | 0.00 | 44 | 1017.0 |
| 20260510150147 | 53 | 244 | 7.0 | 11.3 | 0.00 | 0.00 | 0.00 | 43 | 1017.0 |
| 20260510145643 | 53 | 73 | 1.7 | 13.0 | 0.00 | 0.00 | 0.00 | 45 | 1016.9 |
| 20260510145140 | 53 | 18 | 1.7 | 3.5 | 0.00 | 0.00 | 0.00 | 43 | 1016.8 |
| 20260510144636 | 52 | 182 | 1.7 | 8.7 | 0.00 | 0.00 | 0.00 | 44 | 1016.9 |
| 20260510144132 | 53 | 262 | 1.7 | 3.5 | 0.00 | 0.00 | 0.00 | 42 | 1016.6 |
| 20260510143628 | 53 | 257 | 2.6 | 7.0 | 0.00 | 0.00 | 0.00 | 42 | 1016.9 |
| 20260510143124 | 53 | 273 | 1.7 | 5.2 | 0.00 | 0.00 | 0.00 | 44 | 1016.7 |
| 20260510142621 | 52 | 298 | 6.1 | 8.7 | 0.00 | 0.00 | 0.00 | 45 | 1016.8 |
| 20260510142118 | 53 | 284 | 1.7 | 3.5 | 0.00 | 0.00 | 0.00 | 43 | 1016.6 |
| 20260510141615 | 53 | 344 | 2.6 | 5.2 | 0.00 | 0.00 | 0.00 | 42 | 1016.5 |
| 20260510141113 | 52 | 307 | 0.9 | 5.2 | 0.00 | 0.00 | 0.00 | 47 | 1016.5 |
| 20260510140609 | 53 | 264 | 1.7 | 5.2 | 0.00 | 0.00 | 0.00 | 45 | 1016.4 |
| 20260510140108 | 52 | 22 | 1.7 | 3.5 | 0.00 | 0.00 | 0.00 | 44 | 1016.4 |
| 20260510135604 | 51 | 129 | 1.7 | 7.0 | 0.00 | 0.00 | 0.00 | 45 | 1016.6 |
| 20260510135100 | 51 | 13 | 0.9 | 7.0 | 0.00 | 0.00 | 0.00 | 46 | 1016.4 |
| 20260510134557 | 51 | 10 | 0.9 | 1.7 | 0.00 | 0.00 | 0.00 | 48 | 1016.4 |
| 20260510134054 | 51 | 295 | 2.6 | 3.5 | 0.00 | 0.00 | 0.00 | 46 | 1016.3 |
| 20260510133550 | 52 | 99 | 1.7 | 7.8 | 0.00 | 0.00 | 0.00 | 49 | 1016.1 |
| 20260510133046 | 51 | 304 | 0.9 | 0.9 | 0.00 | 0.00 | 0.00 | 49 | 1016.2 |
| 20260510132543 | 49 | 312 | 3.5 | 7.0 | 0.00 | 0.00 | 0.00 | 52 | 1016.2 |
| 20260510132040 | 49 | 272 | 7.0 | 7.8 | 0.00 | 0.00 | 0.00 | 52 | 1015.9 |
| 20260510131538 | 49 | 270 | 0.9 | 3.5 | 0.00 | 0.00 | 0.00 | 52 | 1015.9 |
| 20260510131035 | 49 | 280 | 3.5 | 6.1 | 0.00 | 0.00 | 0.00 | 51 | 1016.0 |
| 20260510130531 | 50 | 255 | 2.6 | 7.0 | 0.00 | 0.00 | 0.00 | 50 | 1016.1 |
| 20260510130029 | 50 | 346 | 0.9 | 0.9 | 0.00 | 0.00 | 0.00 | 52 | 1016.1 |
| 20260510125525 | 49 | 348 | 0.0 | 2.6 | 0.00 | 0.00 | 0.00 | 50 | 1015.9 |
| 20260510125021 | 50 | 296 | 3.5 | 6.1 | 0.00 | 0.00 | 0.00 | 52 | 1015.9 |
| 20260510124518 | 49 | 353 | 0.0 | 2.6 | 0.00 | 0.00 | 0.00 | 52 | 1015.7 |
| 20260510124015 | 49 | 23 | 0.9 | 1.7 | 0.00 | 0.00 | 0.00 | 51 | 1015.7 |
| 20260510123510 | 49 | 348 | 0.9 | 2.6 | 0.00 | 0.00 | 0.00 | 55 | 1015.6 |
| 20260510123006 | 48 | 30 | 0.9 | 1.7 | 0.00 | 0.00 | 0.00 | 56 | 1015.7 |
| 20260510122502 | 48 | 276 | 0.9 | 1.7 | 0.00 | 0.00 | 0.00 | 57 | 1015.7 |
| 20260510121958 | 48 | 327 | 0.0 | 1.7 | 0.00 | 0.00 | 0.00 | 59 | 1015.6 |
| 20260510121455 | 47 | 0 | 0.9 | 2.6 | 0.00 | 0.00 | 0.00 | 61 | 1015.6 |
| 20260510120953 | 47 | 10 | 0.9 | 0.9 | 0.00 | 0.00 | 0.00 | 62 | 1015.5 |
| 20260510120450 | 46 | 358 | 0.0 | 1.7 | 0.00 | 0.00 | 0.00 | 65 | 1015.7 |
| 20260510115946 | 46 | 23 | 0.0 | 1.7 | 0.00 | 0.00 | 0.00 | 65 | 1015.6 |
| 20260510115443 | 46 | 301 | 1.7 | 2.6 | 0.00 | 0.00 | 0.00 | 66 | 1015.4 |
| 20260510114939 | 45 | 326 | 0.9 | 1.7 | 0.00 | 0.00 | 0.00 | 69 | 1015.3 |
| 20260510114436 | 44 | 356 | 0.0 | 2.6 | 0.00 | 0.00 | 0.00 | 72 | 1015.3 |
| 20260510113931 | 43 | 309 | 2.6 | 2.6 | 0.00 | 0.00 | 0.00 | 73 | 1015.4 |
| 20260510113427 | 42 | 298 | 1.7 | 2.6 | 0.00 | 0.00 | 0.00 | 74 | 1015.1 |
| 20260510112925 | 42 | 323 | 1.7 | 3.5 | 0.00 | 0.00 | 0.00 | 75 | 1015.3 |
| 20260510112422 | 42 | 287 | 2.6 | 2.6 | 0.00 | 0.00 | 0.00 | 77 | 1015.0 |
| 20260510111918 | 41 | 337 | 0.9 | 2.6 | 0.00 | 0.00 | 0.00 | 79 | 1014.8 |
| 20260510111414 | 41 | 315 | 0.0 | 0.9 | 0.00 | 0.00 | 0.00 | 82 | 1014.9 |
| 20260510110910 | 40 | 338 | 0.9 | 1.7 | 0.00 | 0.00 | 0.00 | 85 | 1014.8 |
| 20260510110406 | 39 | 335 | 0.0 | 1.7 | 0.00 | 0.00 | 0.00 | 91 | 1014.7 |
| 20260510105903 | 38 | 339 | 0.0 | 0.9 | 0.00 | 0.00 | 0.00 | 94 | 1014.9 |
| 20260510105402 | 37 | 321 | 0.9 | 1.7 | 0.00 | 0.00 | 0.00 | 95 | 1014.6 |
| 20260510104859 | 37 | 332 | 0.9 | 1.7 | 0.00 | 0.00 | 0.00 | 95 | 1014.3 |
| 20260510104356 | 36 | 334 | 0.0 | 0.9 | 0.00 | 0.00 | 0.00 | 96 | 1014.6 |
| 20260510103852 | 35 | 335 | 0.0 | 0.0 | 0.00 | 0.00 | 0.00 | 95 | 1014.6 |
| 20260510103349 | 34 | 335 | 0.0 | 0.0 | 0.00 | 0.00 | 0.00 | 95 | 1014.3 |
| 20260510102845 | 34 | 335 | 0.0 | 0.0 | 0.00 | 0.00 | 0.00 | 95 | 1014.5 |
| 20260510102341 | 33 | 335 | 0.0 | 0.0 | 0.00 | 0.00 | 0.00 | 95 | 1014.4 |
| 20260510101838 | 33 | 335 | 0.0 | 0.0 | 0.00 | 0.00 | 0.00 | 95 | 1014.2 |
| 20260510101336 | 33 | 335 | 0.0 | 0.0 | 0.00 | 0.00 | 0.00 | 95 | 1014.3 |
| 20260510100832 | 34 | 335 | 0.0 | 0.0 | 0.00 | 0.00 | 0.00 | 95 | 1014.0 |
| 20260510100330 | 34 | 335 | 0.0 | 0.0 | 0.00 | 0.00 | 0.00 | 95 | 1013.9 |
| 20260510095826 | 34 | 335 | 0.0 | 0.0 | 0.00 | 0.00 | 0.00 | 95 | 1013.9 |
| 20260510095321 | 34 | 335 | 0.0 | 0.0 | 0.00 | 0.00 | 0.00 | 95 | 1013.6 |
| 20260510094820 | 34 | 335 | 0.0 | 0.0 | 0.00 | 0.00 | 0.00 | 95 | 1013.6 |
| 20260510094316 | 33 | 335 | 0.0 | 0.0 | 0.00 | 0.00 | 0.00 | 94 | 1013.6 |
| 20260510093812 | 34 | 335 | 0.0 | 0.0 | 0.00 | 0.00 | 0.00 | 94 | 1013.7 |
| 20260510093308 | 34 | 335 | 0.0 | 0.0 | 0.00 | 0.00 | 0.00 | 94 | 1013.7 |
| 20260510092805 | 34 | 335 | 0.0 | 0.0 | 0.00 | 0.00 | 0.00 | 94 | 1013.5 |
| 20260510092301 | 34 | 335 | 0.0 | 0.0 | 0.00 | 0.00 | 0.00 | 94 | 1013.3 |
| 20260510091756 | 34 | 335 | 0.0 | 0.0 | 0.00 | 0.00 | 0.00 | 94 | 1013.3 |
| 20260510091254 | 34 | 335 | 0.0 | 0.0 | 0.00 | 0.00 | 0.00 | 94 | 1013.1 |
| 20260510090750 | 33 | 335 | 0.0 | 0.0 | 0.00 | 0.00 | 0.00 | 93 | 1012.9 |
| 20260510090248 | 34 | 335 | 0.0 | 0.0 | 0.00 | 0.00 | 0.00 | 93 | 1012.9 |
| 20260510085743 | 34 | 335 | 0.0 | 0.0 | 0.00 | 0.00 | 0.00 | 93 | 1012.7 |
| 20260510085237 | 34 | 335 | 0.0 | 0.0 | 0.00 | 0.00 | 0.00 | 93 | 1012.8 |
| 20260510084734 | 34 | 335 | 0.0 | 0.0 | 0.00 | 0.00 | 0.00 | 92 | 1012.6 |
| 20260510084231 | 35 | 335 | 0.0 | 0.0 | 0.00 | 0.00 | 0.00 | 92 | 1012.7 |
| 20260510083727 | 35 | 335 | 0.0 | 0.0 | 0.00 | 0.00 | 0.00 | 92 | 1012.4 |
| 20260510083225 | 35 | 335 | 0.0 | 0.0 | 0.00 | 0.00 | 0.00 | 92 | 1012.5 |
| 20260510082720 | 35 | 335 | 0.0 | 0.0 | 0.00 | 0.00 | 0.00 | 92 | 1012.3 |
| 20260510082217 | 35 | 335 | 0.0 | 0.0 | 0.00 | 0.00 | 0.00 | 91 | 1012.4 |
| 20260510081716 | 35 | 335 | 0.0 | 0.0 | 0.00 | 0.00 | 0.00 | 91 | 1012.4 |
| 20260510081213 | 36 | 335 | 0.0 | 0.0 | 0.00 | 0.00 | 0.00 | 90 | 1012.1 |
| 20260510080712 | 36 | 335 | 0.0 | 0.0 | 0.00 | 0.00 | 0.00 | 90 | 1012.3 |
| 20260510080209 | 37 | 335 | 0.0 | 0.0 | 0.00 | 0.00 | 0.00 | 90 | 1012.0 |
| 20260510075706 | 37 | 335 | 0.0 | 0.0 | 0.00 | 0.00 | 0.00 | 89 | 1012.0 |
| 20260510075203 | 37 | 322 | 0.9 | 0.9 | 0.00 | 0.00 | 0.00 | 89 | 1012.0 |
| 20260510074700 | 36 | 331 | 0.0 | 1.7 | 0.00 | 0.00 | 0.00 | 89 | 1012.0 |
| 20260510074156 | 36 | 335 | 0.9 | 0.9 | 0.00 | 0.00 | 0.00 | 88 | 1011.8 |
| 20260510073653 | 37 | 336 | 0.0 | 0.0 | 0.00 | 0.00 | 0.00 | 88 | 1011.9 |
| 20260510073149 | 37 | 336 | 0.0 | 0.0 | 0.00 | 0.00 | 0.00 | 88 | 1011.8 |
| 20260510072645 | 37 | 336 | 0.9 | 0.9 | 0.00 | 0.00 | 0.00 | 87 | 1011.7 |
| 20260510072142 | 38 | 336 | 0.0 | 0.0 | 0.00 | 0.00 | 0.00 | 86 | 1011.7 |
| 20260510071637 | 39 | 336 | 0.0 | 0.0 | 0.00 | 0.00 | 0.00 | 86 | 1011.6 |
| 20260510071135 | 39 | 336 | 0.0 | 0.9 | 0.00 | 0.00 | 0.00 | 86 | 1011.5 |
| 20260510070633 | 39 | 335 | 0.9 | 0.9 | 0.00 | 0.00 | 0.00 | 85 | 1011.5 |
| 20260510070130 | 39 | 356 | 0.0 | 0.0 | 0.00 | 0.00 | 0.00 | 83 | 1011.4 |
| 20260510065626 | 39 | 356 | 0.0 | 0.9 | 0.00 | 0.00 | 0.00 | 82 | 1011.3 |
| 20260510065122 | 39 | 356 | 0.0 | 0.0 | 0.00 | 0.00 | 0.00 | 82 | 1011.2 |
| 20260510064618 | 39 | 356 | 0.0 | 0.0 | 0.00 | 0.00 | 0.00 | 80 | 1011.3 |
| 20260510064115 | 40 | 356 | 0.0 | 0.0 | 0.00 | 0.00 | 0.00 | 78 | 1011.2 |
| 20260510063612 | 41 | 356 | 0.0 | 0.0 | 0.00 | 0.00 | 0.00 | 77 | 1011.2 |
| 20260510063109 | 41 | 356 | 0.0 | 0.0 | 0.00 | 0.00 | 0.00 | 76 | 1011.1 |
| 20260510062605 | 42 | 356 | 0.0 | 0.0 | 0.00 | 0.00 | 0.00 | 75 | 1011.0 |
| 20260510062100 | 42 | 356 | 0.0 | 0.9 | 0.00 | 0.00 | 0.00 | 74 | 1011.0 |
| 20260510061557 | 42 | 357 | 0.0 | 0.0 | 0.00 | 0.00 | 0.00 | 73 | 1010.9 |
| 20260510061054 | 43 | 0 | 0.0 | 0.9 | 0.00 | 0.00 | 0.00 | 73 | 1010.8 |
| 20260510060550 | 43 | 1 | 0.9 | 1.7 | 0.00 | 0.00 | 0.00 | 72 | 1010.7 |
| 20260510060046 | 43 | 0 | 0.9 | 1.7 | 0.00 | 0.00 | 0.00 | 71 | 1010.8 |
| 20260510055542 | 44 | 2 | 0.9 | 1.7 | 0.00 | 0.00 | 0.00 | 71 | 1010.7 |
| 20260510055041 | 44 | 12 | 0.9 | 2.6 | 0.00 | 0.00 | 0.00 | 70 | 1010.7 |
| 20260510054536 | 44 | 16 | 1.7 | 3.5 | 0.00 | 0.00 | 0.00 | 70 | 1010.7 |
| 20260510054032 | 44 | 33 | 3.5 | 5.2 | 0.00 | 0.00 | 0.00 | 69 | 1010.6 |
| 20260510053527 | 45 | 17 | 4.3 | 7.0 | 0.00 | 0.00 | 0.00 | 69 | 1010.7 |
| 20260510053024 | 45 | 2 | 3.5 | 5.2 | 0.00 | 0.00 | 0.00 | 70 | 1010.7 |
| 20260510052520 | 45 | 14 | 1.7 | 2.6 | 0.00 | 0.00 | 0.00 | 68 | 1010.5 |
| 20260510052016 | 46 | 20 | 1.7 | 3.5 | 0.00 | 0.00 | 0.00 | 68 | 1010.4 |
| 20260510051512 | 46 | 16 | 2.6 | 5.2 | 0.00 | 0.00 | 0.00 | 67 | 1010.4 |
| 20260510051008 | 46 | 28 | 1.7 | 2.6 | 0.00 | 0.00 | 0.00 | 67 | 1010.4 |
| 20260510050506 | 47 | 29 | 2.6 | 6.1 | 0.00 | 0.00 | 0.00 | 65 | 1010.1 |
| 20260510050002 | 47 | 53 | 2.6 | 7.0 | 0.00 | 0.00 | 0.00 | 65 | 1009.9 |
| 20260510045500 | 46 | 348 | 0.0 | 0.9 | 0.00 | 0.00 | 0.00 | 67 | 1009.5 |
| 20260510044956 | 46 | 348 | 0.0 | 0.0 | 0.00 | 0.00 | 0.00 | 65 | 1009.4 |
| 20260510044453 | 47 | 347 | 0.0 | 0.0 | 0.00 | 0.00 | 0.00 | 65 | 1009.3 |
| 20260510043950 | 47 | 349 | 0.0 | 0.0 | 0.00 | 0.00 | 0.00 | 64 | 1009.3 |
| 20260510043445 | 47 | 347 | 0.0 | 0.0 | 0.00 | 0.00 | 0.00 | 64 | 1009.3 |
| 20260510042944 | 48 | 348 | 0.0 | 0.0 | 0.00 | 0.00 | 0.00 | 63 | 1009.2 |
| 20260510042440 | 48 | 357 | 0.0 | 0.0 | 0.00 | 0.00 | 0.00 | 62 | 1009.1 |
| 20260510041935 | 48 | 354 | 0.0 | 0.9 | 0.00 | 0.00 | 0.00 | 62 | 1009.0 |
| 20260510041433 | 48 | 349 | 0.0 | 0.0 | 0.00 | 0.00 | 0.00 | 61 | 1009.0 |
| 20260510040931 | 49 | 345 | 0.0 | 0.0 | 0.00 | 0.00 | 0.00 | 61 | 1009.0 |
| 20260510040427 | 50 | 341 | 0.0 | 0.9 | 0.00 | 0.00 | 0.00 | 59 | 1008.9 |
| 20260510035923 | 50 | 347 | 0.0 | 0.9 | 0.00 | 0.05 | 0.05 | 58 | 1009.0 |
| 20260510035419 | 50 | 349 | 0.0 | 0.9 | 0.00 | 0.05 | 0.05 | 57 | 1008.8 |
| 20260510034919 | 51 | 352 | 0.0 | 1.7 | 0.00 | 0.05 | 0.05 | 56 | 1008.8 |
| 20260510034418 | 51 | 349 | 0.9 | 1.7 | 0.00 | 0.05 | 0.05 | 55 | 1008.8 |
| 20260510033914 | 52 | 336 | 0.0 | 5.2 | 0.00 | 0.05 | 0.05 | 55 | 1008.6 |
| 20260510033410 | 52 | 297 | 0.9 | 3.5 | 0.00 | 0.05 | 0.05 | 55 | 1008.6 |
| 20260510032907 | 52 | 321 | 0.9 | 0.9 | 0.00 | 0.05 | 0.05 | 56 | 1008.6 |
| 20260510032404 | 52 | 359 | 0.9 | 1.7 | 0.00 | 0.05 | 0.05 | 56 | 1008.4 |
| 20260510031859 | 52 | 2 | 1.7 | 3.5 | 0.00 | 0.05 | 0.05 | 55 | 1008.3 |
| 20260510031355 | 53 | 346 | 0.9 | 3.5 | 0.00 | 0.05 | 0.05 | 56 | 1008.3 |
| 20260510030854 | 53 | 336 | 3.5 | 6.1 | 0.00 | 0.05 | 0.05 | 55 | 1008.4 |
| 20260510030351 | 53 | 220 | 0.9 | 2.6 | 0.00 | 0.05 | 0.05 | 56 | 1008.3 |
| 20260510025849 | 53 | 348 | 0.9 | 1.7 | 0.00 | 0.05 | 0.05 | 56 | 1008.2 |
| 20260510025346 | 53 | 331 | 1.7 | 2.6 | 0.00 | 0.05 | 0.05 | 55 | 1008.0 |
| 20260510024843 | 53 | 337 | 1.7 | 2.6 | 0.00 | 0.05 | 0.05 | 56 | 1008.1 |
| 20260510024340 | 53 | 355 | 0.9 | 1.7 | 0.00 | 0.05 | 0.05 | 56 | 1008.0 |
| 20260510023836 | 53 | 350 | 0.9 | 1.7 | 0.00 | 0.05 | 0.05 | 56 | 1008.1 |
| 20260510023333 | 54 | 358 | 0.9 | 1.7 | 0.00 | 0.05 | 0.05 | 55 | 1008.0 |
| 20260510022830 | 54 | 60 | 2.6 | 5.2 | 0.00 | 0.05 | 0.05 | 56 | 1007.8 |
| 20260510022328 | 54 | 333 | 1.7 | 3.5 | 0.00 | 0.05 | 0.05 | 55 | 1007.6 |
| 20260510021828 | 54 | 358 | 1.7 | 2.6 | 0.00 | 0.05 | 0.05 | 55 | 1007.5 |
| 20260510021326 | 54 | 17 | 1.7 | 7.0 | 0.00 | 0.05 | 0.05 | 54 | 1007.3 |
| 20260510020822 | 55 | 28 | 1.7 | 8.7 | 0.00 | 0.05 | 0.05 | 56 | 1007.4 |
| 20260510020317 | 55 | 341 | 1.7 | 3.5 | 0.00 | 0.05 | 0.05 | 57 | 1006.9 |
| 20260510015813 | 55 | 1 | 2.6 | 5.2 | 0.00 | 0.05 | 0.05 | 56 | 1007.0 |
| 20260510015309 | 55 | 345 | 3.5 | 7.0 | 0.00 | 0.05 | 0.05 | 55 | 1006.8 |
| 20260510014805 | 55 | 7 | 3.5 | 5.2 | 0.00 | 0.05 | 0.05 | 54 | 1006.6 |
| 20260510014302 | 56 | 355 | 3.5 | 6.1 | 0.00 | 0.05 | 0.05 | 54 | 1006.3 |
| 20260510013758 | 56 | 41 | 2.6 | 7.0 | 0.00 | 0.05 | 0.05 | 53 | 1006.3 |
| 20260510013254 | 56 | 9 | 3.5 | 6.1 | 0.00 | 0.05 | 0.05 | 53 | 1006.2 |
| 20260510012749 | 57 | 357 | 3.5 | 3.5 | 0.00 | 0.05 | 0.05 | 53 | 1005.8 |
| 20260510012244 | 57 | 37 | 2.6 | 5.2 | 0.00 | 0.05 | 0.05 | 51 | 1005.9 |
| 20260510011743 | 58 | 324 | 2.6 | 8.7 | 0.00 | 0.05 | 0.05 | 50 | 1005.5 |
| 20260510011239 | 58 | 344 | 3.5 | 6.1 | 0.00 | 0.05 | 0.05 | 49 | 1005.4 |
| 20260510010736 | 59 | 288 | 3.5 | 7.8 | 0.00 | 0.05 | 0.05 | 49 | 1005.5 |
| 20260510010232 | 59 | 341 | 4.3 | 7.0 | 0.00 | 0.05 | 0.05 | 48 | 1005.3 |
| 20260510005729 | 60 | 338 | 1.7 | 13.9 | 0.00 | 0.05 | 0.05 | 46 | 1005.3 |
| 20260510005226 | 60 | 330 | 2.6 | 3.5 | 0.00 | 0.05 | 0.05 | 44 | 1004.7 |
| 20260510004724 | 61 | 340 | 0.0 | 0.9 | 0.00 | 0.05 | 0.05 | 42 | 1004.8 |
| 20260510004222 | 61 | 348 | 0.0 | 0.9 | 0.00 | 0.05 | 0.05 | 41 | 1004.4 |
| 20260510003719 | 62 | 310 | 2.6 | 2.6 | 0.00 | 0.05 | 0.05 | 41 | 1004.4 |
| 20260510003215 | 61 | 310 | 1.7 | 3.5 | 0.00 | 0.05 | 0.05 | 41 | 1004.3 |
| 20260510002714 | 62 | 281 | 3.5 | 3.5 | 0.00 | 0.05 | 0.05 | 40 | 1004.3 |
| 20260510002211 | 62 | 280 | 5.2 | 6.1 | 0.00 | 0.05 | 0.05 | 40 | 1004.1 |
| 20260510001708 | 62 | 281 | 4.3 | 7.0 | 0.00 | 0.05 | 0.05 | 40 | 1004.2 |
| 20260510001207 | 62 | 281 | 5.2 | 6.1 | 0.00 | 0.05 | 0.05 | 39 | 1004.0 |
| 20260510000708 | 62 | 137 | 2.6 | 9.6 | 0.00 | 0.05 | 0.05 | 39 | 1003.8 |
| 20260510000205 | 63 | 266 | 6.1 | 7.8 | 0.00 | 0.05 | 0.05 | 38 | 1004.0 |
| 20260509235702 | 63 | 268 | 5.2 | 9.6 | 0.00 | 0.05 | 0.05 | 37 | 1003.9 |
| 20260509235158 | 63 | 279 | 5.2 | 13.9 | 0.00 | 0.05 | 0.05 | 36 | 1003.6 |
| 20260509234654 | 63 | 299 | 7.8 | 15.6 | 0.00 | 0.05 | 0.05 | 36 | 1003.7 |
| 20260509234151 | 63 | 281 | 6.1 | 14.8 | 0.00 | 0.05 | 0.05 | 36 | 1003.6 |
| 20260509233649 | 64 | 277 | 12.2 | 19.1 | 0.00 | 0.05 | 0.05 | 35 | 1003.6 |
| 20260509233146 | 64 | 253 | 9.6 | 12.2 | 0.00 | 0.05 | 0.05 | 37 | 1003.5 |
| 20260509232643 | 64 | 245 | 8.7 | 13.9 | 0.00 | 0.05 | 0.05 | 36 | 1003.5 |
| 20260509232139 | 65 | 277 | 14.8 | 18.2 | 0.00 | 0.05 | 0.05 | 37 | 1003.3 |
| 20260509231636 | 65 | 267 | 11.3 | 18.2 | 0.00 | 0.05 | 0.05 | 37 | 1003.5 |
| 20260509231134 | 65 | 220 | 13.0 | 18.2 | 0.00 | 0.05 | 0.05 | 39 | 1003.1 |
| 20260509230631 | 65 | 258 | 10.4 | 16.5 | 0.00 | 0.05 | 0.05 | 38 | 1003.1 |
| 20260509230127 | 66 | 268 | 14.8 | 20.9 | 0.00 | 0.05 | 0.05 | 38 | 1002.9 |
| 20260509225623 | 66 | 308 | 13.0 | 20.9 | 0.00 | 0.05 | 0.05 | 38 | 1002.6 |
| 20260509225119 | 66 | 249 | 4.3 | 12.2 | 0.00 | 0.05 | 0.05 | 39 | 1002.7 |
| 20260509224614 | 66 | 285 | 13.0 | 22.6 | 0.00 | 0.05 | 0.05 | 39 | 1002.5 |
| 20260509224112 | 65 | 280 | 16.5 | 19.1 | 0.00 | 0.05 | 0.05 | 40 | 1002.3 |
| 20260509223608 | 66 | 246 | 10.4 | 19.1 | 0.00 | 0.05 | 0.05 | 40 | 1002.2 |
| 20260509223106 | 65 | 276 | 6.1 | 13.9 | 0.00 | 0.05 | 0.05 | 42 | 1002.4 |
| 20260509222602 | 65 | 254 | 6.1 | 25.2 | 0.00 | 0.05 | 0.05 | 40 | 1002.2 |
| 20260509222058 | 66 | 277 | 14.8 | 22.6 | 0.00 | 0.05 | 0.05 | 38 | 1002.2 |
| 20260509221554 | 67 | 280 | 16.5 | 21.7 | 0.00 | 0.05 | 0.05 | 38 | 1001.9 |
| 20260509221050 | 67 | 285 | 10.4 | 18.2 | 0.00 | 0.05 | 0.05 | 40 | 1001.8 |
| 20260509220546 | 67 | 278 | 16.5 | 20.9 | 0.00 | 0.05 | 0.05 | 38 | 1001.6 |
| 20260509220043 | 67 | 257 | 17.4 | 25.2 | 0.00 | 0.05 | 0.05 | 37 | 1001.6 |
| 20260509215537 | 66 | 261 | 10.4 | 18.2 | 0.00 | 0.05 | 0.05 | 40 | 1001.6 |
| 20260509215035 | 66 | 279 | 7.8 | 16.5 | 0.00 | 0.05 | 0.05 | 41 | 1001.6 |
| 20260509214532 | 66 | 257 | 15.6 | 22.6 | 0.00 | 0.05 | 0.05 | 40 | 1001.5 |
| 20260509214029 | 66 | 271 | 13.0 | 18.2 | 0.00 | 0.05 | 0.05 | 40 | 1001.6 |
| 20260509213525 | 66 | 244 | 14.8 | 20.0 | 0.00 | 0.05 | 0.05 | 40 | 1001.5 |
| 20260509213022 | 66 | 280 | 12.2 | 23.5 | 0.00 | 0.05 | 0.05 | 38 | 1001.5 |
| 20260509212520 | 67 | 259 | 7.8 | 21.7 | 0.00 | 0.05 | 0.05 | 39 | 1001.4 |
| 20260509212016 | 67 | 290 | 9.6 | 18.2 | 0.00 | 0.05 | 0.05 | 39 | 1001.5 |
| 20260509211512 | 67 | 240 | 10.4 | 16.5 | 0.00 | 0.05 | 0.05 | 38 | 1001.5 |
| 20260509211009 | 67 | 272 | 13.9 | 23.5 | 0.00 | 0.05 | 0.05 | 40 | 1001.3 |
| 20260509210506 | 66 | 274 | 12.2 | 19.1 | 0.00 | 0.05 | 0.05 | 40 | 1001.4 |
| 20260509210001 | 66 | 259 | 8.7 | 26.1 | 0.00 | 0.05 | 0.05 | 40 | 1001.4 |
| 20260509205456 | 67 | 266 | 12.2 | 29.5 | 0.00 | 0.05 | 0.05 | 38 | 1001.0 |
| 20260509204951 | 67 | 284 | 11.3 | 19.1 | 0.00 | 0.05 | 0.05 | 41 | 1001.0 |
| 20260509204448 | 67 | 266 | 16.5 | 20.9 | 0.00 | 0.05 | 0.05 | 41 | 1001.1 |
| 20260509203945 | 67 | 234 | 13.9 | 16.5 | 0.00 | 0.05 | 0.05 | 40 | 1001.1 |
| 20260509203441 | 66 | 262 | 7.0 | 13.9 | 0.00 | 0.05 | 0.05 | 43 | 1001.3 |
| 20260509202939 | 66 | 288 | 15.6 | 23.5 | 0.00 | 0.05 | 0.05 | 42 | 1001.5 |
| 20260509202435 | 65 | 228 | 14.8 | 25.2 | 0.00 | 0.05 | 0.05 | 40 | 1001.9 |
| 20260509201930 | 65 | 263 | 13.0 | 22.6 | 0.00 | 0.05 | 0.05 | 44 | 1001.8 |
| 20260509201425 | 66 | 288 | 13.0 | 19.1 | 0.00 | 0.05 | 0.05 | 43 | 1001.6 |
| 20260509200923 | 66 | 260 | 9.6 | 20.9 | 0.00 | 0.05 | 0.05 | 44 | 1001.7 |
| 20260509200422 | 66 | 273 | 18.2 | 28.7 | 0.00 | 0.05 | 0.05 | 43 | 1001.5 |
| 20260509195919 | 66 | 271 | 18.2 | 20.9 | 0.00 | 0.05 | 0.05 | 44 | 1001.8 |
| 20260509195415 | 67 | 278 | 10.4 | 18.2 | 0.00 | 0.05 | 0.05 | 48 | 1001.7 |
| 20260509194914 | 66 | 272 | 7.8 | 12.2 | 0.00 | 0.05 | 0.05 | 55 | 1001.8 |
| 20260509194411 | 65 | 278 | 4.3 | 7.0 | 0.00 | 0.05 | 0.05 | 58 | 1001.9 |
| 20260509193908 | 64 | 262 | 4.3 | 6.1 | 0.00 | 0.05 | 0.05 | 62 | 1001.9 |
| 20260509193407 | 64 | 268 | 3.5 | 9.6 | 0.00 | 0.05 | 0.05 | 64 | 1001.8 |
| 20260509192903 | 64 | 263 | 5.2 | 8.7 | 0.00 | 0.05 | 0.05 | 61 | 1001.9 |
| 20260509192359 | 64 | 227 | 8.7 | 11.3 | 0.00 | 0.05 | 0.05 | 62 | 1002.1 |
| 20260509191855 | 63 | 279 | 6.1 | 12.2 | 0.00 | 0.05 | 0.05 | 62 | 1002.0 |
| 20260509191351 | 62 | 255 | 5.2 | 8.7 | 0.00 | 0.05 | 0.05 | 64 | 1002.2 |
| 20260509190847 | 60 | 274 | 7.8 | 8.7 | 0.00 | 0.05 | 0.05 | 64 | 1002.3 |
| 20260509190344 | 58 | 260 | 7.0 | 8.7 | 0.00 | 0.05 | 0.05 | 65 | 1002.3 |
| 20260509185841 | 57 | 259 | 4.3 | 7.0 | 0.00 | 0.05 | 0.05 | 68 | 1002.1 |
| 20260509185338 | 57 | 261 | 3.5 | 7.8 | 0.07 | 0.05 | 0.05 | 68 | 1002.2 |
| 20260509184835 | 56 | 247 | 7.0 | 20.0 | 0.19 | 0.05 | 0.05 | 67 | 1002.0 |
| 20260509184332 | 56 | 238 | 14.8 | 22.6 | 0.12 | 0.04 | 0.04 | 74 | 1002.6 |
| 20260509183829 | 56 | 269 | 11.3 | 22.6 | 0.12 | 0.02 | 0.02 | 72 | 1002.4 |
| 20260509183324 | 60 | 272 | 21.7 | 30.4 | 0.12 | 0.02 | 0.02 | 66 | 1002.1 |
| 20260509182820 | 66 | 271 | 10.4 | 26.9 | 0.00 | 0.00 | 0.00 | 46 | 1001.5 |
| 20260509182318 | 66 | 237 | 7.8 | 12.2 | 0.00 | 0.00 | 0.00 | 50 | 1001.0 |
| 20260509181815 | 66 | 267 | 7.0 | 9.6 | 0.00 | 0.00 | 0.00 | 50 | 1001.0 |
| 20260509181312 | 66 | 242 | 3.5 | 8.7 | 0.00 | 0.00 | 0.00 | 51 | 1000.8 |
| 20260509180809 | 66 | 268 | 5.2 | 11.3 | 0.00 | 0.00 | 0.00 | 52 | 1000.8 |